CZ-6A DEB

Satellite information

Favourite Embed

Satellite Type and Status

DEBRISIN ORBIT

Key statistics

Satellite CZ-6A DEB at a glance.

Uptime

495

Days in orbit

Revolutions

≈ 14.5

Per day

Orbit

LEO

Low Earth Orbit

Inclination

89.0

Latest

Satellite identification and parameters

Extended collection of information and parameters for CZ-6A DEB.

Object identification

Identified? True

Debris? True

Object name: CZ-6A DEB

International designator: 2024-140YR

Object number (NORAD): 61424

Object ID (CCSDS): 61424

Country: PEOPLES REPUBLIC OF CHINA (PRC)

Current information (Y/N): Y

RCS size: SMALL

Orbital parameters

Period: 99.572 minutes

Inclination: 89.0074 deg

SMA: 7116.24 km

Apoapsis: 789.23 km

Periapsis: 686.98 km

RAAN: 293.6997 deg

Eccentricy: 0.00718428

Argument of periapsis: 191.8117 deg

Mean anomaly: 168.1407 deg

Mean motion: 14.46194953 rev/day

Mean motion (dot): 0.00001677 rev/day2

B* drag term: 0.0004501451 1/REarth

Two-line elements (TLE)

Creation date: Dec. 14, 2025, 3:07 a.m.

Reference frame: TEME

Reference center: EARTH

Epoch: Dec. 13, 2025, 2:30 p.m. UTC

TLE line 0: 0 CZ-6A DEB

TLE line 1: 1 61424U 24140YR 25347.60425170 .00001677 00000-0 45015-3 0 9993

TLE line 2: 2 61424 89.0074 293.6997 0071843 191.8117 168.1407 14.46194953 69078

Live tracking on map

Real-time ground track for satellite CZ-6A DEB.

In-orbit conjunctions

A list of the most updated potential collisions computed for object CZ-6A DEB.

Target Orbit TCA Probability of collision Miss distance Type
IRIDIUM 33 DEB LEO 2025-07-18 11:47:34 0.0001357262 331.0 (m) DEBRIS
CZ-6A DEB LEO 2025-02-21 19:10:49 0.0001690335 328.0 (m) DEBRIS
CZ-4 DEB SSO 2024-11-25 12:54:27 0.0002879385 311.0 (m) DEBRIS
DMSP 5D-2 F13 DEB SSO 2024-11-09 22:11:07 0.000218788 447.0 (m) DEBRIS
FENGYUN 1C DEB SSO 2024-10-11 12:14:24 0.000507487 136.0 (m) DEBRIS

Associated space launch

18 Low Earth Orbit communication satellites with Ku, Q and V band payloads for the G60 constellation operated by Shanghai Spacecom Satellite Technology (SSST) with funding backed by the Shanghai local government. Initial constellation will consist of 1296 satellites by 2027 with long term plans to expand it to 12000 satellites.

CZ-6A DEB was lifted into orbit during the mission ‘Long March 6A | G60 Polar Group 01’, on board a Long March 6A space rocket.

The launch took place on Aug. 6, 2024, 6:42 a.m. from Launch Complex 9A.

For more information about the launch, click the button.

Launch to space Long March 6A | G60 Polar Group 01
Long March 6A | G60 Polar Group 01

Agency: N/A

Status: Launch Successful

Launch date: Aug. 6, 2024, 6:42 a.m. UTC

Rocket: Long March 6A

Launch pad: Launch Complex 9A

Location: Taiyuan Satellite Launch Center, People's Republic of China

...

Latest news about this satellite

News about space launch
Brightness of first Chinese broadband constellation satellites alarms astronomers

The first satellites of a Chinese broadband constellation are significantly brighter than those of Western systems, posing a new challenge for astronomers.

News about space launch
Chinese rocket stage breaks up into cloud of more than 700 pieces of space debris

HELSINKI — A Chinese Long March 6A rocket’s upper stage has fragmented into a cloud of over 700 pieces of space debris, adding to concerns about long-term orbital safety. China […]

News about space launch
China's Thousand Sails Megaconstellation Kicks Off with Dangerous Debris Field

China's Thousand Sails Megaconstellation Kicks Off with Dangerous Debris Field


Newsletter sign-up

Weekly statistics, charts and insights to help you stay on top of the space industry.